Change the Weather History Date:

Thursday, March 20, 2014

  Actual Average Record
Temperature  
Mean Temperature 37 °F -  
Max Temperature 46 °F 43 °F 82 °F (2012)
Min Temperature 27 °F 25 °F 9 °F (2013)
Degree Days  
Heating Degree Days 28    
Moisture  
Dew Point 25 °F    
Average Humidity 68    
Maximum Humidity 89    
Minimum Humidity 39    
Precipitation  
Precipitation 0.00 in - - ()
Sea Level Pressure  
Sea Level Pressure 30.01 in    
Wind  
Wind Speed 5 mph (West)    
Max Wind Speed 8 mph    
Max Gust Speed -    
Visibility 10 miles    
Events      
Averages and records for this station are not official NWS values.
T = Trace of Precipitation, MM = Missing Value Source: NWS Daily Summary

Daily Weather History Graph

Daily Weather History Graph

Search for Another Location

Airport or City:

Trip Planner

Search our weather history database for the weather conditions in past years. The results will help you decide how hot, cold, wet, or windy it might be!

Date:

Astronomy

Mar. 20, 2014 Rise Set
Actual Time 7:03 AM CDT 7:13 PM CDT
Civil Twilight 6:35 AM CDT 7:41 PM CDT
Nautical Twilight 6:02 AM CDT 8:14 PM CDT
Astronomical Twilight 5:28 AM CDT 8:48 PM CDT
Moon 11:40 PM CDT (3/20) 9:03 AM CDT (3/20)
Length of Visible Light 13h 05m
Length of Day
12h 09m
Waning Gibbous, 84% of the Moon is Illuminated
Mar 20
Waning Gibbous
Mar 23
Last Quarter
Mar 30
New
Apr 7
First Quarter
Apr 15
Full

Hourly Weather History & Observations

Time (CDT) Temp. Windchill Dew Point Humidity Pressure Visibility Wind Dir Wind Speed Gust Speed Precip Events Conditions
12:56 AM 32.0 °F 25.6 °F 26.1 °F 79% 29.98 in 10.0 mi West 6.9 mph - N/A   Clear
1:56 AM 30.9 °F 26.2 °F 25.0 °F 79% 29.99 in 10.0 mi West 4.6 mph - N/A   Clear
2:56 AM 30.9 °F 27.5 °F 26.1 °F 82% 29.99 in 10.0 mi WSW 3.5 mph - N/A   Overcast
3:56 AM 30.9 °F 26.2 °F 25.0 °F 79% 29.99 in 10.0 mi West 4.6 mph - N/A   Overcast
4:56 AM 30.9 °F 25.2 °F 25.0 °F 79% 30.00 in 10.0 mi West 5.8 mph - N/A   Clear
5:56 AM 30.0 °F 23.2 °F 26.1 °F 85% 30.02 in 10.0 mi West 6.9 mph - N/A   Clear
6:56 AM 28.9 °F 22.8 °F 25.0 °F 85% 30.03 in 10.0 mi WNW 5.8 mph - N/A   Clear
7:56 AM 28.9 °F 22.8 °F 26.1 °F 89% 30.04 in 9.0 mi WSW 5.8 mph - N/A   Clear
8:56 AM 32.0 °F 26.4 °F 28.0 °F 85% 30.05 in 10.0 mi West 5.8 mph - N/A   Clear
9:56 AM 34.0 °F 28.0 °F 26.1 °F 73% 30.06 in 10.0 mi West 6.9 mph - N/A   Clear
10:56 AM 37.0 °F 31.6 °F 25.0 °F 62% 30.06 in 10.0 mi West 6.9 mph - N/A   Clear
11:56 AM 39.9 °F - 25.0 °F 55% 30.04 in 10.0 mi North - - N/A   Clear
12:56 PM 42.1 °F 37.1 °F 25.0 °F 51% 30.03 in 10.0 mi WSW 8.1 mph - N/A   Partly Cloudy
1:56 PM 44.1 °F 40.8 °F 25.0 °F 47% 30.01 in 10.0 mi WSW 5.8 mph - N/A   Partly Cloudy
2:56 PM 45.0 °F 41.2 °F 24.1 °F 44% 30.00 in 10.0 mi WNW 6.9 mph - N/A   Mostly Cloudy
3:56 PM 46.9 °F - 23.0 °F 39% 29.98 in 10.0 mi Variable 5.8 mph - N/A   Clear
4:56 PM 46.0 °F 43.1 °F 21.9 °F 39% 29.98 in 10.0 mi West 5.8 mph - N/A   Clear
5:56 PM 45.0 °F - 21.9 °F 40% 29.98 in 10.0 mi Calm Calm - N/A   Clear
6:56 PM 42.1 °F - 26.1 °F 53% 29.98 in 10.0 mi Calm Calm - N/A   Clear
7:56 PM 39.0 °F - 24.1 °F 55% 30.00 in 10.0 mi Calm Calm - N/A   Clear
8:56 PM 30.9 °F - 25.0 °F 79% 30.01 in 10.0 mi Calm Calm - N/A   Clear
9:56 PM 32.0 °F 28.7 °F 26.1 °F 79% 30.01 in 10.0 mi East 3.5 mph - N/A   Clear
10:56 PM 28.9 °F 25.2 °F 25.0 °F 85% 30.01 in 10.0 mi South 3.5 mph - N/A   Clear
11:56 PM 27.0 °F - 23.0 °F 85% 30.00 in 10.0 mi Calm Calm - N/A   Clear